Regional Weather Roundup
Issued by NWS Cleveland, OH

Home | Current Version | Previous Version | Graphics & Text | Print | Product List | Glossary On
Versions: 1 2 3 4 5 6 7 8 9 10 11 12 13 14 15 16 17 18 19 20 21 22 23 24 25 26 27 28 29 30 31 32 33 34 35 36 37 38 39 40 41 42 43 44 45 46 47 48 49 50
000
ASUS41 KCLE 200102
RWRCLE
OHIO REGIONAL WEATHER ROUNDUP
NATIONAL WEATHER SERVICE CLEVELAND, OH
900 PM EDT THU APR 19 2018

NOTE: "FAIR" INDICATES FEW OR NO CLOUDS BELOW 12,000 FEET WITH NO
SIGNIFICANT WEATHER AND/OR OBSTRUCTIONS TO VISIBILITY.

OHZ001>008-015>018-024>027-034-035-043-044-200200-
   NORTHWEST OHIO

CITY           SKY/WX    TMP DP  RH WIND       PRES   REMARKS
DEFIANCE       FAIR      45  33  63 NW13      30.29R
FINDLAY        FAIR      48  21  34 NW7       30.25R
TOLEDO EXPRESS FAIR      49  20  31 N8        30.26R
TOLEDO EXEC    FAIR      49  20  31 N8        30.27R
LIMA           FAIR      47  32  56 NW16      30.27R
$$

OHZ009>014-019>023-028>033-038-089-200200-
   NORTHEAST OHIO

CITY           SKY/WX    TMP DP  RH WIND       PRES   REMARKS
CLE-HOPKINS    FAIR      37  28  70 N6        30.28R
CLE-LAKEFRONT  FAIR      39  30  70 N8        30.27R
CUY CO. ARPT   CLEAR     37  30  75 N9        30.27R
LORAIN-ELYRIA  FAIR      37  26  64 NE14      30.27R
ASHTABULA      FAIR      34  24  67 NW10G17   30.24R WCI  26
AKRON-CANTON   FAIR      40  25  55 N12       30.22R
WOOSTER        FAIR      40  27  59 N10       30.24R
MANSFIELD      FAIR      42  25  50 NW10      30.22R
YOUNGSTOWN     FAIR      35  26  69 NW12      30.21R WCI  27
$$

OHZ042-051>053-060>062-070>072-077>081-200200-
  SOUTHWEST OHIO

CITY           SKY/WX    TMP DP  RH WIND       PRES   REMARKS
CINC-COVINGTON FAIR      48  27  44 W7        30.28R
CINC-LUNKEN    FAIR      51  28  41 NW5       30.29R
HAMILTON       FAIR      48  30  49 NW5       30.30R
DAYTON         FAIR      45  29  53 NW8       30.29R
WRIGHT-PAT AFB FAIR      49  28  43 NW7       30.27R
DAYTON GENERAL FAIR      51  26  37 NW7       30.27R
WILMINGTON     FAIR      47  28  47 NW5       30.27R
$$

OHZ036-037-039>041-045>050-054>059-063>069-073>076-082>088-200200-
  CENTRAL AND SOUTHEAST OHIO

CITY           SKY/WX    TMP DP  RH WIND       PRES   REMARKS
COLUMBUS       FAIR      48  26  42 NW10      30.24R
OSU AIRPORT    FAIR      45  27  49 NW8       30.24R
BOLTON FIELD   FAIR      46  29  53 NW5       30.25R
RICKENBACK AFB NOT AVBL
NEWARK         FAIR      46  28  49 W6        30.23R
MARION         FAIR      42  25  50 NW8       30.24R
LANCASTER      FAIR      45  31  58 W5        30.25R
ZANESVILLE     FAIR      46  28  49 W6        30.22R
NEW PHILLY     FAIR      44  25  47 NW5       30.22
$$




USA.gov is the U.S. government's official web portal to all federal, state and local government web resources and services.